STARLINK-2139, 48554

Orbit data source: Space-Track

STARLINK-2139, 48554 is a payload satellite owned by SpaceX/Seattle (US) in LEO that was launched on Sat, 15 May 2021 UTC via an FALCON 9 launch vehicle from the Air Force Eastern Test Range (AFETR). Payload-class satellites include a variety of spacecraft equipped with specific instruments for various scientific and technological missions. These include communications satellites like Starlink; space stations such as the ISS; scientific satellites like the Hubble; Earth observation satellites from companies like Planet Labs, Umbra, and HawkEye 360; GPS; miniature CubeSats for education and research; and military/defense satellites.

Loading next visibility...
Identifier
48554, 2021-041B
Orbit
LEO
Country
Flag of USUS
Related business
Manufacturer
SpaceX/Seattle
Mission
Operational Commercial Communications
Bus & Motor
STARLINK, Unknown motor
Mass
260 kg wet, ~248 kg dry
Launch date (UTC)
2021-05-15 (5 years ago)
Launch vehicle
FALCON 9
Launch site
Air Force Eastern Test Range (AFETR)
Object type
Payload
Rocket body
Debris
Shape & HBR
Box + 1 Pan, 10.1 m
Radar Cross Section
13.562 m², Large (>1 m²)

Expand to show TLE details & history
Last TLE update: 3 days ago

TLE from 3 days ago
0 STARLINK-2139
1 48554U 21041B   26170.92987608  .00000074  00000-0  14153-4 0  9998
2 48554  53.1610  11.0627 0001039  89.8188 270.2933 15.31695066280947
Epoch: 2026-06-19T22:19Z
TLE epoch observation values (Epoch: 2026-06-19T22:19:01.293Z)
Latitude
0.00003°
Longitude
128.15554°
Altitude
471.652 km
Speed
7.631 km/s
True Right ascension
00h 44m 15s
True Declination
0° 00' 00"
Sunlit
Object was in daylight at epoch
Visualization orbit readout
Latitude
Unknown
Longitude
Unknown
Altitude
Unknown
Speed
Unknown
Apparent Right ascension
Unknown
Apparent Declination
Unknown
Sunlit
N/A
Visualization observer readout
Local Sidereal Time
01:06:08
Azimuth
Unknown
Elevation
Unknown
Doppler factor
Unknown
Orbital elements
Apogee altitude
471.723 km
Perigee altitude
470.3 km
Semi-major axis
6,849.148 km
Eccentricity
0.0001
Inclination
53.161°
RAAN
11.0627°
Arg. of periapsis
89.8188°
True anomaly
270.28139°
Mean anomaly
270.2933°
Eccentric anomaly
270.28735°
Mean motion
3.82903 °/min
Orbital period
94.02 mins
BSTAR
0.000014153
Loading maneuver chart data...
Computing Atmospheric mass density...

Documentation

Showing up to 5 results
|